TimeCDT,TemperatureF,Dew PointF,Humidity,Sea Level PressureIn,VisibilityMPH,Wind Direction,Wind SpeedMPH,Gust SpeedMPH,PrecipitationIn,Events,Conditions,WindDirDegrees,DateUTC
12:15 AM,48.2,41.0,76,29.89,10.0,SSE,3.5,-,N/A,,Clear,160,2012-10-31 05:15:00
12:35 AM,51.8,42.8,71,29.88,10.0,Calm,Calm,-,N/A,,Clear,0,2012-10-31 05:35:00
12:55 AM,50.0,41.0,71,29.89,10.0,North,9.2,-,N/A,,Clear,360,2012-10-31 05:55:00
1:15 AM,48.2,41.0,76,29.90,10.0,North,3.5,-,N/A,,Clear,360,2012-10-31 06:15:00
1:35 AM,46.4,41.0,81,29.89,10.0,Calm,Calm,-,N/A,,Clear,0,2012-10-31 06:35:00
1:55 AM,46.4,41.0,81,29.90,10.0,Calm,Calm,-,N/A,,Clear,0,2012-10-31 06:55:00
2:15 AM,46.4,41.0,81,29.90,10.0,Calm,Calm,-,N/A,,Clear,0,2012-10-31 07:15:00
2:35 AM,44.6,39.2,81,29.91,10.0,North,5.8,-,N/A,,Clear,350,2012-10-31 07:35:00
2:55 AM,46.4,41.0,81,29.91,10.0,NNE,4.6,-,N/A,,Clear,30,2012-10-31 07:55:00
3:15 AM,46.4,41.0,81,29.91,10.0,North,4.6,-,N/A,,Clear,360,2012-10-31 08:15:00
3:35 AM,48.2,41.0,76,29.92,10.0,North,6.9,-,N/A,,Clear,350,2012-10-31 08:35:00
3:55 AM,51.8,42.8,71,29.93,10.0,NNW,6.9,-,N/A,,Clear,340,2012-10-31 08:55:00
4:15 AM,50.0,41.0,71,29.93,10.0,NNW,5.8,-,N/A,,Clear,340,2012-10-31 09:15:00
4:35 AM,50.0,41.0,71,29.93,10.0,North,8.1,-,N/A,,Clear,360,2012-10-31 09:35:00
4:55 AM,48.2,41.0,76,29.94,10.0,North,6.9,-,N/A,,Clear,350,2012-10-31 09:55:00
5:15 AM,48.2,41.0,76,29.96,10.0,NNW,5.8,-,N/A,,Clear,340,2012-10-31 10:15:00
5:35 AM,48.2,41.0,76,29.96,10.0,North,5.8,-,N/A,,Clear,350,2012-10-31 10:35:00
5:55 AM,46.4,39.2,76,29.96,10.0,North,5.8,-,N/A,,Clear,360,2012-10-31 10:55:00
6:15 AM,46.4,39.2,76,29.97,10.0,NNW,5.8,-,N/A,,Clear,340,2012-10-31 11:15:00
6:35 AM,46.4,39.2,76,29.98,10.0,NNW,4.6,-,N/A,,Clear,340,2012-10-31 11:35:00
6:55 AM,46.4,39.2,76,29.98,10.0,North,3.5,-,N/A,,Clear,360,2012-10-31 11:55:00
7:15 AM,44.6,37.4,76,29.98,10.0,Calm,Calm,-,N/A,,Clear,0,2012-10-31 12:15:00
7:35 AM,44.6,37.4,76,29.99,10.0,NNW,4.6,-,N/A,,Clear,330,2012-10-31 12:35:00
7:55 AM,46.4,37.4,71,29.98,10.0,Calm,Calm,-,N/A,,Clear,0,2012-10-31 12:55:00
8:15 AM,44.6,37.4,76,30.00,10.0,NNW,4.6,-,N/A,,Clear,330,2012-10-31 13:15:00
8:35 AM,46.4,37.4,71,30.01,10.0,North,5.8,-,N/A,,Clear,350,2012-10-31 13:35:00
8:55 AM,50.0,37.4,62,30.02,10.0,North,5.8,-,N/A,,Clear,10,2012-10-31 13:55:00
9:15 AM,51.8,37.4,58,30.03,10.0,North,8.1,-,N/A,,Clear,10,2012-10-31 14:15:00
9:35 AM,51.8,37.4,58,30.04,10.0,NNE,9.2,-,N/A,,Clear,20,2012-10-31 14:35:00
9:55 AM,53.6,37.4,54,30.04,10.0,NNE,9.2,-,N/A,,Clear,20,2012-10-31 14:55:00
10:15 AM,55.4,37.4,51,30.04,10.0,NE,8.1,-,N/A,,Clear,40,2012-10-31 15:15:00
10:35 AM,55.4,37.4,51,30.04,10.0,NNE,5.8,-,N/A,,Clear,20,2012-10-31 15:35:00
10:55 AM,59.0,37.4,45,30.05,10.0,North,3.5,-,N/A,,Clear,350,2012-10-31 15:55:00
11:15 AM,60.8,37.4,42,30.06,10.0,North,5.8,-,N/A,,Clear,360,2012-10-31 16:15:00
11:35 AM,62.6,37.4,39,30.06,10.0,NNE,5.8,-,N/A,,Clear,20,2012-10-31 16:35:00
11:55 AM,64.4,35.6,34,30.06,10.0,NNE,4.6,-,N/A,,Clear,20,2012-10-31 16:55:00
12:15 PM,64.4,35.6,34,30.05,10.0,NNE,6.9,-,N/A,,Clear,30,2012-10-31 17:15:00
12:35 PM,66.2,35.6,32,30.05,10.0,NNE,4.6,-,N/A,,Clear,30,2012-10-31 17:35:00
12:55 PM,68.0,35.6,30,30.04,10.0,NE,4.6,-,N/A,,Clear,50,2012-10-31 17:55:00
1:15 PM,68.0,35.6,30,30.04,10.0,NE,3.5,-,N/A,,Clear,40,2012-10-31 18:15:00
1:35 PM,69.8,35.6,28,30.03,10.0,North,3.5,-,N/A,,Clear,10,2012-10-31 18:35:00
1:55 PM,69.8,35.6,28,30.02,10.0,NE,3.5,-,N/A,,Clear,40,2012-10-31 18:55:00
2:15 PM,69.8,35.6,28,30.01,10.0,Calm,Calm,-,N/A,,Clear,0,2012-10-31 19:15:00
2:35 PM,71.6,35.6,27,30.01,10.0,NNW,5.8,-,N/A,,Clear,340,2012-10-31 19:35:00
2:55 PM,71.6,35.6,27,30.00,2.5,NNE,3.5,-,N/A,,Haze,30,2012-10-31 19:55:00
3:15 PM,73.4,35.6,25,30.00,1.0,NNE,3.5,-,N/A,,Haze,20,2012-10-31 20:15:00
3:35 PM,73.4,33.8,23,29.99,0.5,NNE,4.6,-,N/A,,Haze,20,2012-10-31 20:35:00
3:55 PM,73.4,33.8,23,29.99,1.5,Calm,Calm,-,N/A,,Haze,0,2012-10-31 20:55:00
4:15 PM,73.4,33.8,23,29.98,2.5,NNE,5.8,-,N/A,,Haze,30,2012-10-31 21:15:00
4:35 PM,73.4,33.8,23,29.98,0.8,NE,3.5,-,N/A,,Haze,40,2012-10-31 21:35:00
4:55 PM,73.4,33.8,23,29.98,0.8,Calm,Calm,-,N/A,,Haze,0,2012-10-31 21:55:00
5:15 PM,71.6,35.6,27,29.98,0.8,NE,4.6,-,N/A,,Haze,40,2012-10-31 22:15:00
5:35 PM,71.6,35.6,27,29.98,1.0,NNE,3.5,-,N/A,,Haze,30,2012-10-31 22:35:00
5:55 PM,69.8,35.6,28,29.98,0.8,NNE,4.6,-,N/A,,Haze,20,2012-10-31 22:55:00
6:15 PM,68.0,35.6,30,29.99,0.8,NE,3.5,-,N/A,,Haze,40,2012-10-31 23:15:00
6:35 PM,66.2,35.6,32,29.98,0.8,NE,3.5,-,N/A,,Haze,40,2012-10-31 23:35:00
7:15 PM,59.0,37.4,45,29.99,2.5,NE,3.5,-,N/A,,Haze,50,2012-11-01 00:15:00
7:35 PM,57.2,37.4,48,29.99,1.8,NE,3.5,-,N/A,,Haze,50,2012-11-01 00:35:00
7:55 PM,55.4,37.4,51,30.00,2.0,ENE,3.5,-,N/A,,Haze,60,2012-11-01 00:55:00
8:15 PM,57.2,37.4,48,30.00,3.0,NE,3.5,-,N/A,,Haze,50,2012-11-01 01:15:00
8:35 PM,53.6,37.4,54,30.01,2.0,NE,5.8,-,N/A,,Haze,40,2012-11-01 01:35:00
8:55 PM,53.6,37.4,54,30.01,2.0,NE,4.6,-,N/A,,Haze,40,2012-11-01 01:55:00
9:15 PM,55.4,37.4,51,30.01,1.8,NNE,4.6,-,N/A,,Haze,30,2012-11-01 02:15:00
9:35 PM,51.8,37.4,58,30.01,2.5,NNE,4.6,-,N/A,,Haze,30,2012-11-01 02:35:00
9:55 PM,51.8,37.4,58,30.02,1.2,NE,3.5,-,N/A,,Haze,40,2012-11-01 02:55:00
10:15 PM,50.0,37.4,62,30.02,0.5,Calm,Calm,-,N/A,,Haze,0,2012-11-01 03:15:00
10:35 PM,50.0,37.4,62,30.02,0.8,Calm,Calm,-,N/A,,Haze,0,2012-11-01 03:35:00
10:55 PM,46.4,37.4,71,30.02,2.0,NE,4.6,-,N/A,,Haze,40,2012-11-01 03:55:00
11:15 PM,46.4,37.4,71,30.02,2.5,NE,4.6,-,N/A,,Haze,40,2012-11-01 04:15:00
11:35 PM,46.4,37.4,71,30.02,3.0,NE,4.6,-,N/A,,Haze,40,2012-11-01 04:35:00
11:55 PM,50.0,37.4,62,30.02,3.0,NNE,4.6,-,N/A,,Haze,30,2012-11-01 04:55:00